Grafton, IL

12:04 AM CST on January 18, 2017 (GMT -0600)
Saint Charles County Smartt

Weather History for KSET - July, 2013

Change the Weather History Date:

Tuesday, July 9, 2013

  Actual Average (KSTL) Record (KSTL)
Temperature  
Mean Temperature 85 °F -  
Max Temperature 95 °F 91 °F 103 °F (1936)
Min Temperature 77 °F 72 °F 54 °F (1961)
Cooling Degree Days 20    
Growing Degree Days 35 (Base 50)    
Moisture  
Dew Point 72 °F    
Average Humidity 66    
Maximum Humidity 84    
Minimum Humidity 49    
Precipitation  
Precipitation 0.00 in - - ()
Sea Level Pressure  
Sea Level Pressure 29.97 in    
Wind  
Wind Speed 4 mph (SW)    
Max Wind Speed 12 mph    
Max Gust Speed -    
Visibility 10 miles    
Events      
Averages and records for this station are not official NWS values.
T = Trace of Precipitation, MM = Missing Value Source: NWS Daily Summary

Daily Weather History Graph

Daily Weather History Graph

Search for Another Location

Airport or City:

Trip Planner

Search our weather history database for the weather conditions in past years. The results will help you decide how hot, cold, wet, or windy it might be!

Date:

Astronomy

Jul. 09, 2013 Rise Set
Actual Time 5:44 AM CDT 8:29 PM CDT
Civil Twilight 5:13 AM CDT 9:00 PM CDT
Nautical Twilight 4:33 AM CDT 9:39 PM CDT
Astronomical Twilight 3:48 AM CDT 10:24 PM CDT
Moon 7:07 AM CDT (7/9) 9:08 PM CDT (7/9)
Length of Visible Light 15h 47m
Length of Day
14h 44m
New Moon, 2% of the Moon is Illuminated
Jul 9
New Moon
Jul 15
First Quarter
Jul 22
Full
Jul 29
Last Quarter
Aug 6
New

Hourly Weather History & Observations

Time (CDT) Temp. Heat Index Dew Point Humidity Pressure Visibility Wind Dir Wind Speed Gust Speed Precip Events Conditions
12:54 AM 80.1 °F 83.8 °F 72.0 °F 76% 30.02 in 10.0 mi South 3.5 mph - N/A   Clear
1:54 AM 79.0 °F - 71.1 °F 77% 30.01 in 10.0 mi SSW 4.6 mph - N/A   Clear
2:54 AM 79.0 °F - 71.1 °F 77% 30.01 in 10.0 mi Calm Calm - N/A   Clear
3:54 AM 78.1 °F - 71.1 °F 79% 30.01 in 10.0 mi Calm Calm - N/A   Clear
4:54 AM 80.1 °F 83.2 °F 70.0 °F 71% 30.01 in 10.0 mi Calm Calm - N/A   Clear
5:54 AM 77.0 °F - 71.1 °F 82% 30.01 in 10.0 mi Calm Calm - 0.00 in   Clear
6:54 AM 77.0 °F - 72.0 °F 84% 30.02 in 9.0 mi Calm Calm - N/A   Clear
7:54 AM 80.1 °F 83.6 °F 71.1 °F 74% 30.02 in 9.0 mi South 3.5 mph - N/A   Clear
8:54 AM 82.9 °F 87.5 °F 71.1 °F 67% 30.03 in 10.0 mi WSW 4.6 mph - N/A   Clear
9:54 AM 84.9 °F 90.1 °F 71.1 °F 63% 30.03 in 10.0 mi West 8.1 mph - N/A   Clear
10:54 AM 87.1 °F 93.6 °F 72.0 °F 61% 30.02 in 10.0 mi WSW 6.9 mph - N/A   Clear
11:54 AM 89.1 °F 96.0 °F 72.0 °F 57% 30.01 in 10.0 mi WSW 8.1 mph - N/A   Clear
12:54 PM 91.9 °F 100.7 °F 73.0 °F 54% 30.00 in 10.0 mi Variable 6.9 mph - N/A   Clear
1:54 PM 93.0 °F 100.7 °F 72.0 °F 50% 29.99 in 10.0 mi WSW 10.4 mph - N/A   Partly Cloudy
2:54 PM 93.9 °F 102.1 °F 72.0 °F 49% 29.97 in 10.0 mi WSW 9.2 mph - N/A   Clear
3:54 PM 93.9 °F 104.0 °F 73.9 °F 52% 29.94 in 10.0 mi SSW 9.2 mph - N/A   Partly Cloudy
4:54 PM 93.0 °F 101.9 °F 73.0 °F 52% 29.93 in 10.0 mi SW 10.4 mph - N/A   Clear
5:54 PM 93.0 °F 101.9 °F 73.0 °F 52% 29.91 in 10.0 mi SSW 11.5 mph - N/A   Clear
6:54 PM 91.9 °F 100.7 °F 73.0 °F 54% 29.91 in 10.0 mi SSW 8.1 mph - N/A   Clear
7:54 PM 88.0 °F 96.5 °F 73.9 °F 63% 29.91 in 10.0 mi South 8.1 mph - N/A   Clear
8:54 PM 84.9 °F 91.4 °F 73.0 °F 67% 29.90 in 10.0 mi South 6.9 mph - N/A   Clear
9:54 PM 82.9 °F 88.8 °F 73.0 °F 72% 29.90 in 10.0 mi South 6.9 mph - N/A   Clear
10:54 PM 82.9 °F 88.8 °F 73.0 °F 72% 29.92 in 10.0 mi Calm Calm - N/A   Clear
11:54 PM 81.0 °F 86.2 °F 73.9 °F 79% 29.92 in 10.0 mi Calm Calm - N/A   Clear